Theta_e
319 319 319 320 320 320 320 320 320 321 321 321 321 322 323 323 322 316 313 325 330 354 350 338 336 336 338 336 336 333 319 315 318 320 324 329 329 335 335 333 334 336 333 336 339
319 319 319 320 320 320 320 320 320 320 320 320 321 322 323 323 317 311 327 340 351 354 327 329 328 332 328 325 329 326 320 320 327 328 328 331 330 330 329 331 330 332 337 339 339
319 319 319 319 319 319 319 320 320 320 319 320 320 321 322 321 311 311 342 341 345 351 322 323 331 329 322 324 327 326 321 326 326 329 330 331 330 334 330 325 329 329 332 336 336
319 319 319 319 319 319 319 319 319 319 319 319 320 321 323 318 302 323 345 344 341 333 322 322 327 321 316 317 328 323 327 327 327 329 328 328 331 327 331 329 333 334 335 336 335
319 319 319 319 318 319 319 319 319 319 319 319 320 323 317 309 310 325 349 342 327 317 317 324 326 319 313 318 322 322 323 324 326 328 328 331 329 331 330 333 336 335 336 334 335
318 318 319 318 319 318 319 319 319 319 319 320 321 323 312 299 317 330 327 322 321 314 320 326 326 321 316 315 315 325 325 324 326 324 326 327 330 332 331 335 334 334 333 334 335
318 318 318 318 318 318 318 318 318 318 319 321 325 322 311 306 315 315 315 317 318 321 324 330 329 318 315 312 318 316 315 320 320 322 326 328 323 328 332 334 332 332 333 335 336
318 318 317 317 318 318 317 317 317 318 319 322 325 317 306 317 315 316 310 310 319 325 325 327 324 319 314 316 313 310 308 304 313 321 327 325 317 330 333 332 331 332 334 335 335
317 317 317 317 317 317 316 316 317 319 322 324 315 312 308 318 309 311 308 308 314 318 318 326 316 313 314 306 302 305 299 305 310 320 324 323 317 326 333 331 330 332 333 335 335
316 316 316 316 316 315 314 316 318 320 321 320 318 308 315 311 311 310 309 311 308 311 313 317 308 304 306 302 294 299 301 304 307 315 318 320 320 325 328 329 329 331 333 334 336
316 315 315 315 315 315 312 310 308 308 309 310 310 310 312 312 314 310 312 310 307 306 300 312 300 297 304 306 306 306 305 306 310 318 316 320 322 324 327 327 329 329 331 332 335
315 315 315 315 314 313 310 307 305 306 299 308 309 311 310 309 304 308 310 302 303 297 302 300 301 306 309 309 307 304 303 304 310 319 319 322 320 324 326 327 327 329 331 332 334
315 315 314 314 313 312 310 307 312 309 298 304 308 306 305 305 303 304 306 304 301 298 299 297 303 311 309 306 304 302 300 302 305 318 321 319 316 316 323 327 331 331 332 333 333
314 314 313 312 310 311 311 312 312 310 292 300 302 304 306 305 300 309 309 305 302 298 300 299 306 307 306 305 304 295 306 307 306 309 304 319 307 316 323 323 328 331 331 330 333
314 314 313 311 307 310 311 313 311 305 286 304 303 309 307 301 303 304 309 303 299 300 299 297 301 303 303 305 307 302 307 305 306 308 307 309 306 313 322 320 320 328 332 333 333
313 313 312 313 310 314 318 313 308 292 288 300 305 302 300 302 303 305 303 304 305 301 301 300 306 304 305 309 309 310 305 303 301 298 296 308 307 309 316 318 321 327 331 334 332
312 311 309 312 309 315 316 309 293 288 304 298 298 299 299 299 300 302 300 296 293 288 291 298 300 304 308 303 308 305 299 290 289 289 291 299 306 308 321 323 324 323 328 331 332
310 310 313 312 313 315 311 300 290 299 298 302 301 299 297 300 300 301 298 294 298 295 291 290 290 300 306 303 301 302 298 291 286 288 292 300 296 303 320 324 327 327 331 332 330
309 314 312 313 314 315 304 293 294 298 300 299 299 296 295 299 299 299 296 296 299 298 289 291 293 304 305 305 304 300 296 302 292 295 292 295 301 312 322 323 323 326 327 328 333
306 310 314 320 317 310 300 295 299 301 301 300 294 297 295 298 297 294 296 301 301 302 299 295 289 298 304 304 305 300 303 294 293 287 287 295 297 302 315 318 323 326 324 327 332
309 309 314 315 313 305 295 299 301 302 302 298 296 296 296 297 299 297 296 299 300 300 300 295 292 294 299 296 297 298 297 297 296 294 289 290 297 313 316 320 318 320 325 327 330
309 304 315 314 301 304 300 302 299 301 303 300 300 298 297 298 297 297 295 297 301 300 296 297 293 288 293 302 304 302 298 298 293 293 294 294 300 319 317 319 320 322 324 323 326
303 309 314 310 297 300 304 303 302 300 300 299 299 300 300 296 293 298 299 301 302 300 294 295 292 285 290 295 300 297 299 298 298 297 293 292 301 318 319 320 324 325 330 325 325
305 303 309 308 306 301 299 301 299 303 301 301 299 300 297 296 297 295 298 301 301 301 311 302 293 291 286 292 297 296 300 300 295 293 295 296 306 310 315 319 325 323 335 339 341
309 304 306 298 299 300 301 301 300 298 302 302 298 299 297 292 295 296 298 300 301 308 298 294 290 293 295 298 299 299 300 301 296 297 294 298 307 311 317 317 319 327 339 340 342
306 302 303 301 304 301 299 299 299 299 298 297 297 298 297 294 295 294 296 295 295 298 293 295 290 293 292 298 299 299 301 302 301 302 301 302 310 317 321 327 332 332 337 338 340
313 310 304 302 301 300 299 300 299 301 300 300 299 297 296 297 300 299 299 298 297 295 294 294 293 292 287 296 296 292 298 301 302 303 302 299 316 322 326 329 329 332 336 336 339
Wind_Speed
20 20 19 19 19 19 20 20 20 21 21 22 23 21 19 19 21 5 6 6 6 13 4 3 8 12 12 10 11 7 3 3 5 5 3 9 22 19 10 25 21 9 21 19 14
21 21 20 20 19 18 19 20 20 19 22 22 22 20 19 17 7 10 8 8 8 12 4 6 9 12 6 8 9 5 1 6 9 9 10 7 14 10 10 21 20 23 20 18 13
20 20 21 22 22 21 20 19 20 20 20 22 21 21 17 15 6 3 7 8 8 9 5 9 13 10 9 10 7 10 9 14 15 18 7 12 9 8 6 20 26 27 24 19 14
20 21 21 21 22 23 22 21 20 21 20 19 20 19 16 5 3 4 7 6 7 6 6 5 8 9 8 10 5 7 8 11 9 13 14 23 9 6 15 21 25 24 23 20 15
22 22 23 22 22 23 24 23 22 21 20 19 17 15 8 4 10 8 10 7 7 5 7 11 9 8 9 9 6 4 6 9 13 14 15 14 14 10 21 26 24 21 19 19 16
21 22 22 23 23 22 23 22 21 22 19 17 14 9 4 6 6 12 10 9 7 7 8 12 8 9 9 9 8 6 11 9 11 14 15 15 13 11 18 27 27 21 17 16 14
21 22 23 23 24 24 23 23 23 22 19 14 11 5 6 17 7 9 7 7 8 9 9 11 14 5 5 9 9 5 10 7 21 11 13 15 6 13 19 22 23 21 17 15 11
21 22 23 23 24 25 24 23 24 22 17 11 4 5 9 6 11 19 6 8 10 9 12 12 9 8 4 8 10 8 7 5 11 9 15 12 8 18 20 22 21 20 16 14 8
22 23 23 24 24 25 24 25 25 19 13 7 3 4 8 1 5 8 4 9 8 7 5 14 4 5 8 3 6 6 6 10 16 11 16 12 19 15 22 19 20 20 17 14 10
23 23 24 25 25 24 26 27 13 6 6 6 9 6 8 10 6 9 10 9 7 7 8 7 1 3 3 2 7 9 8 9 11 10 13 14 14 16 18 20 18 18 18 15 14
22 24 25 25 25 21 15 7 3 1 4 8 4 6 9 3 4 3 5 10 8 5 6 7 4 7 10 10 11 13 10 12 10 5 4 17 17 15 14 11 16 16 17 16 14
23 24 25 26 26 21 5 4 6 6 9 13 17 19 8 4 4 9 7 4 6 7 8 6 10 10 12 13 15 16 15 14 10 12 11 11 13 15 12 12 8 17 16 15 14
23 24 25 27 29 9 5 3 6 7 4 10 12 10 8 6 7 9 10 10 6 9 9 10 9 16 16 12 14 14 9 9 7 8 16 12 4 2 2 6 7 8 17 15 15
23 23 24 28 5 7 3 7 6 6 2 6 7 5 5 5 7 15 10 8 7 11 12 8 16 16 15 14 9 9 9 14 13 4 7 12 5 5 3 1 9 6 8 11 15
22 23 24 10 8 6 5 7 5 2 4 13 8 3 7 7 3 3 3 6 10 9 6 10 15 13 15 15 12 8 10 8 12 6 6 6 2 8 5 10 10 18 12 18 18
24 21 21 2 5 11 13 7 2 2 4 7 7 8 6 6 10 5 4 5 6 8 12 9 10 15 15 12 12 13 8 8 7 3 4 17 14 5 9 19 15 19 23 20 20
26 25 11 7 6 10 12 5 1 4 2 4 2 4 9 10 12 7 8 6 5 2 6 10 12 13 11 7 6 6 2 3 5 4 7 8 6 10 24 18 20 20 16 10 17
28 30 7 9 7 11 5 3 3 10 13 5 7 7 7 10 8 6 6 6 10 9 6 6 8 9 10 9 7 8 8 6 7 4 6 9 11 8 17 19 17 15 16 8 11
28 3 4 6 13 9 2 3 3 6 10 11 11 6 7 10 3 3 4 5 6 6 0 6 7 16 12 6 7 8 4 9 4 9 2 6 9 5 12 15 18 9 12 14 10
6 4 7 12 12 3 1 5 4 10 9 7 5 5 11 9 7 4 4 4 5 8 7 6 7 6 12 6 7 7 6 3 2 4 4 6 6 5 13 16 15 18 12 13 15
3 4 2 5 4 1 4 5 7 10 6 6 8 7 13 10 1 10 8 12 15 10 8 5 0 11 8 4 8 3 9 4 2 5 6 3 4 3 7 4 7 6 9 17 30
5 3 4 2 1 4 5 2 5 7 2 2 4 5 7 11 8 10 8 6 8 7 6 6 3 6 10 14 14 11 9 9 5 9 3 5 5 8 12 13 4 12 3 5 8
5 4 3 4 2 3 1 2 4 8 10 9 8 10 9 6 6 8 4 5 6 7 4 7 5 4 12 8 10 6 9 7 5 2 7 5 3 7 8 13 14 15 6 5 11
4 4 1 1 3 6 8 7 8 7 7 8 8 8 4 8 7 5 6 5 3 6 5 1 4 2 4 10 13 10 13 9 5 4 5 5 6 2 6 10 19 4 9 12 10
3 3 2 4 6 6 5 7 8 8 6 3 5 7 9 6 8 9 13 11 4 9 3 1 4 6 10 13 13 12 16 12 9 8 4 4 7 12 12 16 8 9 12 10 14
3 4 5 7 3 6 2 4 5 10 8 7 8 11 8 9 7 7 8 8 5 5 2 3 4 7 8 12 13 13 16 14 9 10 8 8 10 12 6 9 15 9 15 11 11
4 5 1 6 6 1 5 6 7 9 5 7 5 6 9 10 8 8 8 8 8 8 7 6 6 6 6 9 11 10 8 9 9 7 6 1 10 23 11 13 10 11 12 5 11
Wind_Direction
346 343 339 338 336 334 332 329 328 325 323 319 318 319 324 327 314 234 244 226 179 167 174 188 186 231 231 175 118 151 83 288 235 1 339 132 117 194 140 131 146 189 140 142 158
343 340 336 335 333 331 328 326 324 322 321 318 316 318 323 331 298 260 231 152 145 159 176 207 197 218 237 219 131 118 63 271 251 141 252 170 149 151 134 115 111 120 128 143 146
340 337 335 333 330 328 325 323 320 319 319 316 315 316 320 320 283 244 142 158 177 180 254 243 253 220 238 242 148 171 168 233 266 274 250 221 157 127 108 128 139 140 143 147 157
337 335 332 331 328 324 322 321 317 316 317 314 315 314 315 273 308 76 164 178 172 202 227 239 257 258 246 257 146 147 188 191 270 275 268 169 152 141 136 146 140 141 148 148 169
335 333 330 328 326 323 319 318 315 313 314 314 316 316 316 235 249 153 145 160 160 167 200 219 242 239 245 247 197 161 202 233 231 252 271 124 152 109 124 132 135 142 152 159 174
333 329 327 325 323 321 317 315 313 309 310 315 314 316 252 253 212 151 181 168 210 192 200 234 248 230 274 277 275 196 205 255 277 264 260 100 144 117 134 140 139 149 159 175 181
331 329 326 323 321 319 316 313 310 306 303 312 304 262 264 242 295 149 205 190 223 183 238 240 253 265 249 283 274 265 226 174 254 256 136 141 115 147 152 141 144 154 164 186 187
329 327 324 320 319 317 315 310 305 298 294 304 315 239 255 254 241 263 234 266 225 209 217 257 270 271 269 291 322 288 298 258 263 225 153 108 163 160 145 144 150 158 168 188 188
329 326 323 320 320 318 315 306 296 287 273 268 240 237 263 207 248 228 243 247 220 234 260 261 2 233 274 253 323 285 232 236 264 228 143 117 148 161 155 153 159 163 172 181 182
328 325 324 322 321 322 319 295 280 315 220 213 260 268 264 250 200 183 216 232 251 205 238 227 10 277 260 172 207 233 213 247 237 244 198 141 161 169 160 159 166 168 169 177 178
327 325 323 321 319 324 336 339 336 62 231 231 263 254 309 128 75 315 307 207 239 216 220 210 169 221 231 227 248 259 268 235 236 264 210 136 139 169 156 123 169 174 175 175 170
328 325 323 323 319 318 279 275 30 266 303 276 261 257 287 312 301 208 200 238 228 235 206 254 219 236 221 227 232 252 264 270 299 85 75 134 152 171 181 159 148 175 177 184 164
326 325 325 324 318 292 216 15 280 307 275 287 238 221 229 169 245 234 178 209 207 241 214 215 241 224 248 234 232 241 246 270 261 104 112 105 5 357 333 98 44 180 175 183 192
325 326 327 330 328 338 313 2 324 323 310 249 177 232 141 207 251 252 173 193 234 213 236 223 234 246 229 252 230 242 238 250 271 60 163 164 219 293 163 158 123 127 307 209 190
323 324 325 322 300 299 334 312 323 11 349 140 162 108 213 201 90 203 106 222 253 257 207 235 248 240 245 226 249 242 251 260 253 160 120 350 131 257 199 198 178 171 200 241 188
319 320 332 346 206 254 287 312 326 303 248 139 150 188 212 224 270 115 179 257 302 291 286 251 247 238 240 251 218 247 274 317 320 205 187 176 227 172 195 229 215 176 181 218 188
318 311 307 289 247 312 311 313 292 245 4 115 224 172 197 221 224 191 180 196 214 238 288 290 253 261 247 247 225 256 151 326 333 337 217 227 185 204 206 202 214 188 186 200 203
319 313 230 215 239 286 308 318 267 309 7 33 3 348 308 298 203 184 228 207 215 234 272 228 282 236 259 198 204 219 174 166 208 216 232 245 253 253 199 198 207 219 158 145 38
315 293 233 231 225 254 324 275 334 18 20 356 331 311 284 276 37 323 255 238 26 8 178 19 303 343 270 257 185 270 252 223 269 267 309 220 262 51 134 192 195 192 146 125 88
316 282 255 245 185 229 261 270 31 44 3 345 317 319 323 1 11 205 259 28 98 54 46 354 328 309 306 293 236 176 238 283 292 245 271 264 247 217 180 193 198 191 164 130 131
248 283 138 155 152 223 236 266 78 93 28 350 359 330 338 355 49 307 17 27 13 10 27 352 330 293 335 288 191 236 248 273 293 170 185 283 279 307 190 76 68 89 162 167 177
308 275 169 197 213 217 244 34 291 50 12 11 304 316 357 355 338 345 63 50 16 333 2 54 267 289 280 302 306 214 212 201 159 283 235 172 261 38 87 80 11 39 5 287 196
308 274 214 147 270 325 223 253 62 45 17 12 346 9 5 347 349 345 88 71 34 50 44 336 308 295 324 330 336 220 235 217 215 256 246 134 251 72 83 93 4 66 1 240 266
285 291 280 201 352 11 10 335 116 76 67 46 336 327 332 317 306 300 324 148 72 86 137 179 275 296 262 311 321 321 320 241 221 224 259 212 145 100 140 111 133 32 76 2 324
239 306 12 344 14 337 15 339 346 103 37 64 330 9 22 334 353 9 5 350 182 150 153 234 267 329 316 326 317 313 314 313 236 244 229 277 162 176 181 146 137 94 75 40 322
299 358 343 294 5 292 155 44 322 82 29 16 2 14 350 34 26 350 1 1 331 344 223 238 281 313 305 297 294 299 301 304 259 254 280 262 31 110 59 29 50 44 67 41 323
349 335 253 287 263 250 35 45 63 24 109 75 2 0 27 13 344 321 314 300 297 315 343 3 12 345 276 290 313 308 280 300 325 258 268 270 142 107 49 53 53 48 49 28 3